TIANMU-1 10

Last updated on Sun Oct 06 2024 00:02:18 GMT+0000 (Coordinated Universal Time)

1 57402U 23101D 24279.48233856 .00019684 00000+0 92679-3 0 9991 2 57402 97.3526 333.6475 0010376 155.0303 205.1436 15.19522397 67151
UTC large
Height (km)
Speed (km/s)
/
Latitude / Longitude
Inclination (degrees)
Orbital Period (minutes)
Azimuth
Elevation
Range (km)
Doppler Factor

Next 0 passes for location: London (51.5072 / 0.1276)

Sorry there are no passes over London.